ARIANE 5 R/B, 32254

Orbit data source: Space-Track

ARIANE 5 R/B, 32254 is space debris in HEO originally from a launch on Fri, 05 Oct 2007 UTC launched from the French Guiana (FRGUI). Debris objects in space refer to the collection of defunct objects orbiting the Earth. Examples of debris include non-operational satellites, rocket bodies, and fragments generated from explosions, collisions, or faulty payload assembly.

Loading next visibility...
Identifier
32254, 2007-044C
Orbit
HEO
Country
Flag of FRFR
Related business
Manufacturer
EADS/Bremen
Mission
Spacecraft
Bus & Motor
EPS+, AESTUS
Mass
3,057 kg wet, 3,057 kg dry
Launch date (UTC)
2007-10-05 (18 years ago)
Launch vehicle
Unknown
Launch site
French Guiana (FRGUI)
Object type
Payload
Rocket body
Debris
Shape & HBR
Cone + Cyl, 2.7 m
Radar Cross Section
28.860 m², Large (>1 m²)

Expand to show TLE details & history
Last TLE update: 15 hours ago

TLE from 15 hours ago
0 ARIANE 5 R/B
1 32254U 07044C   25260.55133125 -.00000120  00000-0  60968-3 0  9997
2 32254   4.4291 108.3850 7069084 218.6722  60.0580  2.49088621161530
Epoch: 2025-09-17T13:13Z
TLE epoch observation values (Epoch: 2025-09-17T13:13:55.019Z)
Latitude
0.00003°
Longitude
-86.47647°
Altitude
19,397.854 km
Speed
3.686 km/s
True Right ascension
07h 14m 54s
True Declination
0° 00' 00"
Sunlit
Object was in daylight at epoch
Visualization orbit readout
Latitude
Unknown
Longitude
Unknown
Altitude
Unknown
Speed
Unknown
Apparent Right ascension
Unknown
Apparent Declination
Unknown
Sunlit
N/A
Visualization observer readout
Local Sidereal Time
21:23:20
Azimuth
Unknown
Elevation
Unknown
Doppler factor
Unknown
Orbital elements
Apogee altitude
32,869.283 km
Perigee altitude
361 km
Semi-major axis
22,993.278 km
Eccentricity
0.70691
Inclination
4.4291°
RAAN
108.385°
Arg. of periapsis
218.6722°
True anomaly
141.62386°
Mean anomaly
60.058°
Eccentric anomaly
99.95148°
Mean motion
0.6225 °/min
Orbital period
578.31 mins
BSTAR
0.00060968
Loading maneuver chart data...
Computing Atmospheric mass density...
Loading historical data...
Loading historical data...
Loading historical data...
Loading historical data...
Loading historical data...
Loading historical data...
Loading historical data...
Other satellites on launch #44 in the year 2007 (2007-10-05 UTC)

Documentation

Showing up to 5 results
|